map of THE home
THE - Airport
Location
City:  Teresina, Piauí, Brazil
Name:Senador Petrônio Portella
ICAO:SBTE
IATA:THE

Details
Type:Airport (Aerodrome, Airfield)
Use:Public/Civil
Latitude:5°03'36"S (-5.059941)
Longitude:42°49'25"W (-42.823477)
Datum:WGS 1984
Elevation:219 ft (67 m)
Variation:21.54°W (WMM2015 magnetic declination)
-0.00° annual change
Runways:1
Longest:7218 × 148 ft (2200 × 45 m), paved

Time
Time Zone:UTC-3
Local Time:

Weather
METAR:SBTE 141100Z 36004KT 9999 FEW023 29/22 Q1011
TAF:SBTE 140200Z 1406/1418 31005KT 9999 FEW030 TN26/1408Z TX37/1417Z
BECMG 1411/1412 10007KT
RMK PCN

Related Locations
Nearby:
Farthest:ROR: 12200 mi / 19634 km
Babelthuap Island [Babelthuap/Koror Airport], PW

Find:

   beyond  
but within

Other Information
Maps:
NOTAMs:
Links:
Sources:

  
  • flag of Brazil
  • flag of Piauí
  

Sectional Chart

Flight Planning
at skyvector.com

Satellite Image

Google Maps Satellite view

 

Copyright © 2004-2018 Karl L. Swartz. All rights reserved.
The Great Circle Mapper name and logo are trademarks of the Great Circle Mapper.
All other trademarks mentioned herein belong to their respective owners.
Please see credits for attibutions and further copyright information.

  Follow gcmap on Facebook Follow gcmap on Twitter Follow gcmap on Google+ GCmap on LinkedIn

hCard Microformat

Geo Microformat